Flagstaff, AZ

2:34 PM MST on June 27, 2017 (GMT -0700)
Flagstaff Pulliam

Weather History for KFLG - March, 2012

Change the Weather History Date:

Thursday, March 8, 2012

  Actual Average Record
Temperature  
Mean Temperature 36 °F 36 °F  
Max Temperature 49 °F 49 °F 67 °F (1989)
Min Temperature 22 °F 23 °F -4 °F (1964)
Degree Days  
Heating Degree Days 29 29  
Month to date heating degree days 247 240  
Since 1 July heating degree days 4937 5079  
Cooling Degree Days 0 0  
Month to date cooling degree days 0 0  
Year to date cooling degree days 0 0  
Moisture  
Dew Point 17 °F    
Average Humidity 51    
Maximum Humidity 77    
Minimum Humidity 25    
Precipitation  
Precipitation T in 0.07 in 1.27 in (1918)
Month to date precipitation T 0.61  
Year to date precipitation 1.41 4.82  
Snow  
Snow T in 0.70 in 13.80 in (1992)
Month to date snowfall T 6.0  
Since 1 July snowfall 66.1 79.2  
Snow Depth T in    
Sea Level Pressure  
Sea Level Pressure 30.20 in    
Wind  
Wind Speed 13 mph (NE)    
Max Wind Speed 26 mph    
Max Gust Speed 41 mph    
Visibility 10 miles    
Events Snow    
T = Trace of Precipitation, MM = Missing Value Source: NWS Daily Summary

Daily Weather History Graph

Daily Weather History Graph

Search for Another Location

Airport or City:

Trip Planner

Search our weather history database for the weather conditions in past years. The results will help you decide how hot, cold, wet, or windy it might be!

Date:

Astronomy

Mar. 08, 2012 Rise Set
Actual Time 6:46 AM MST 6:28 PM MST
Civil Twilight 6:20 AM MST 6:54 PM MST
Nautical Twilight 5:51 AM MST 7:23 PM MST
Astronomical Twilight 5:22 AM MST 7:53 PM MST
Moon 7:16 PM MST (3/8) 6:35 AM MST (3/8)
Length of Visible Light 12h 33m
Length of Day
11h 42m
Full, 100% of the Moon is Illuminated
Mar 8
Full
Mar 14
Last Quarter
Mar 22
New
Mar 30
First Quarter
Apr 6
Full

Hourly Weather History & Observations

Time (MST) Temp. Windchill Dew Point Humidity Pressure Visibility Wind Dir Wind Speed Gust Speed Precip Events Conditions
12:57 AM 27.0 °F 18.0 °F 16.0 °F 63% 30.02 in 10.0 mi North 9.2 mph - N/A   Partly Cloudy
1:57 AM 26.1 °F 17.6 °F 19.0 °F 75% 30.02 in 7.0 mi NNE 8.1 mph - 0.00 in Snow Light Snow
2:57 AM 27.0 °F 18.7 °F 17.1 °F 66% 30.01 in 10.0 mi NNE 8.1 mph - 0.00 in   Clear
3:57 AM 27.0 °F 23.0 °F 16.0 °F 63% 30.06 in 10.0 mi Variable 3.5 mph 21.9 mph N/A   Clear
4:57 AM 28.0 °F 16.1 °F 19.0 °F 69% 30.07 in 10.0 mi NE 16.1 mph 28.8 mph N/A   Mostly Cloudy
5:57 AM 28.0 °F 16.5 °F 19.0 °F 69% 30.11 in 10.0 mi NE 15.0 mph 26.5 mph N/A   Overcast
6:57 AM 28.9 °F 16.5 °F 19.0 °F 67% 30.15 in 10.0 mi NE 18.4 mph 24.2 mph N/A   Overcast
7:57 AM 32.0 °F 19.5 °F 19.9 °F 61% 30.17 in 10.0 mi NNE 21.9 mph 27.6 mph N/A   Clear
8:57 AM 35.1 °F 24.5 °F 19.9 °F 54% 30.19 in 10.0 mi NNE 18.4 mph 29.9 mph N/A   Clear
9:57 AM 37.9 °F 29.2 °F 19.9 °F 48% 30.22 in 10.0 mi NNE 15.0 mph 26.5 mph N/A   Clear
10:57 AM 39.0 °F 30.3 °F 19.0 °F 45% 30.25 in 10.0 mi North 16.1 mph 27.6 mph N/A   Partly Cloudy
11:57 AM 42.1 °F 34.5 °F 18.0 °F 38% 30.25 in 10.0 mi NE 15.0 mph 24.2 mph N/A   Partly Cloudy
12:57 PM 45.0 °F 36.4 °F 15.1 °F 30% 30.20 in 10.0 mi ENE 23.0 mph 27.6 mph N/A   Clear
1:57 PM 46.0 °F 38.8 °F 12.0 °F 25% 30.21 in 10.0 mi East 18.4 mph 27.6 mph N/A   Clear
2:57 PM 46.9 °F - 12.9 °F 25% 30.21 in 10.0 mi NE 12.7 mph 18.4 mph N/A   Clear
3:57 PM 48.9 °F - 16.0 °F 27% 30.21 in 10.0 mi ENE 15.0 mph 24.2 mph N/A   Partly Cloudy
4:57 PM 48.0 °F - 16.0 °F 28% 30.22 in 10.0 mi NE 16.1 mph 19.6 mph N/A   Clear
5:57 PM 45.0 °F 39.3 °F 16.0 °F 31% 30.26 in 10.0 mi NNE 11.5 mph - N/A   Clear
6:57 PM 42.1 °F 37.7 °F 17.1 °F 37% 30.29 in 10.0 mi NNE 6.9 mph - N/A   Clear
7:57 PM 39.9 °F 33.4 °F 17.1 °F 40% 30.31 in 10.0 mi NNE 10.4 mph - N/A   Clear
8:57 PM 35.1 °F 28.6 °F 17.1 °F 48% 30.33 in 10.0 mi NE 8.1 mph - N/A   Clear
9:57 PM 37.9 °F 28.9 °F 14.0 °F 38% 30.32 in 10.0 mi ENE 16.1 mph - N/A   Clear
10:57 PM 33.1 °F 25.5 °F 14.0 °F 46% 30.36 in 10.0 mi NE 9.2 mph - N/A   Clear
11:57 PM 30.9 °F 22.8 °F 18.0 °F 59% 30.35 in 10.0 mi NE 9.2 mph - N/A   Clear